User: anonymous   Login
Location: Wildcat Hills Observatory
(41.6350°N, 103.6812°W)
Time: 23:15:57
(UTC-06:00)
Language:

Cosmos 1634 Rocket - Orbit

View from above orbital plane
View from above orbital plane
View from above satellite
View from above satellite

Ground track
Ground track

The orbit data is extracted from the following two-line orbital elements,

1 15598U 85022B   16120.24206737  .00000012  00000-0 -31128-5 0  9990
2 15598  82.9389  54.7822 0021918 183.5163 284.9963 13.76542305563512
Epoch (UTC): 29 April 2016 05:48:34
Eccentricity: 0.0021918
inclination: 82.9389°
perigee height: 960 km
apogee height: 992 km
right ascension of ascending node: 54.7822°
argument of perigee: 183.5163°
revolutions per day: 13.76542305
mean anomaly at epoch: 284.9963°
orbit number at epoch: 56351

The dashed part of the orbit path shows where the satellite is in the earth's shadow,  

DLR